Temperatura - Umidità - Pioggia orarie del 14-11-2019

Dati orari da stazione meteo del 14-11-2019

Nome Stazione Data Ora Temperatura [°C] Umidità [%] Pioggia [mm] Pressione[hPa]
Sant'Anna di Vinadio 13-11-2019 01:00 -0.2 8 0 997.8
Sant'Anna di Vinadio 13-11-2019 01:10 -0.5 8 0 997.7
Sant'Anna di Vinadio 13-11-2019 01:20 -0.5 7 0 997.7
Sant'Anna di Vinadio 13-11-2019 01:30 -0.5 7 0 997.7
Sant'Anna di Vinadio 13-11-2019 01:40 -0.5 7 0 997.6
Sant'Anna di Vinadio 13-11-2019 01:50 -0.5 8 0 997.6
Sant'Anna di Vinadio 13-11-2019 02:00 -0.7 9 0 997.5
Sant'Anna di Vinadio 13-11-2019 02:10 -1 9 0 997.5
Sant'Anna di Vinadio 13-11-2019 02:20 -1 12 0 997.3
Sant'Anna di Vinadio 13-11-2019 02:30 -1 11 0 997.2
Sant'Anna di Vinadio 13-11-2019 02:40 -1.2 12 0 997.1
Sant'Anna di Vinadio 13-11-2019 02:50 -1 12 0 997
Sant'Anna di Vinadio 13-11-2019 03:00 -0.7 9 0 996.9
Sant'Anna di Vinadio 13-11-2019 03:10 -0.9 9 0 996.7
Sant'Anna di Vinadio 13-11-2019 03:20 -0.9 9 0 996.6
Sant'Anna di Vinadio 13-11-2019 03:30 -1.2 11 0 996.5
Sant'Anna di Vinadio 13-11-2019 03:40 -1.4 11 0 996.4
Sant'Anna di Vinadio 13-11-2019 03:50 -1.9 9 0 996.3
Sant'Anna di Vinadio 13-11-2019 04:00 -2 10 0 996.4
Sant'Anna di Vinadio 13-11-2019 04:10 -2.3 10 0 996.4
Sant'Anna di Vinadio 13-11-2019 04:20 -2.5 11 0 996.5
Sant'Anna di Vinadio 13-11-2019 04:30 -2.5 11 0 996.4
Sant'Anna di Vinadio 13-11-2019 04:40 -2.3 11 0 996.4
Sant'Anna di Vinadio 13-11-2019 04:50 -2.7 11 0 996.4
Sant'Anna di Vinadio 13-11-2019 05:00 -2.7 12 0 996.6
Sant'Anna di Vinadio 13-11-2019 05:10 -3.1 14 0 996.7
Sant'Anna di Vinadio 13-11-2019 05:20 -3.4 18 0 996.9
Sant'Anna di Vinadio 13-11-2019 05:30 -3.8 19 0 997.1
Sant'Anna di Vinadio 13-11-2019 05:40 -3.7 20 0 997.2
Sant'Anna di Vinadio 13-11-2019 05:50 -4.3 20 0 997.2
Sant'Anna di Vinadio 13-11-2019 06:00 -4.5 19 0 997.2
Sant'Anna di Vinadio 13-11-2019 06:10 -4.6 19 0 997.2
Sant'Anna di Vinadio 13-11-2019 06:20 -4.5 19 0 997.2
Sant'Anna di Vinadio 13-11-2019 06:30 -4.5 19 0 997.4
Sant'Anna di Vinadio 13-11-2019 06:40 -4.5 22 0 997.4
Sant'Anna di Vinadio 13-11-2019 06:50 -4.7 23 0 997.3
Sant'Anna di Vinadio 13-11-2019 07:00 -5.2 25 0 997.4
Sant'Anna di Vinadio 13-11-2019 07:10 -5.5 25 0 997.5
Sant'Anna di Vinadio 13-11-2019 07:20 -5.5 24 0 997.6
Sant'Anna di Vinadio 13-11-2019 07:30 -5.5 24 0 997.6
Sant'Anna di Vinadio 13-11-2019 07:40 -5.4 23 0 997.7
Sant'Anna di Vinadio 13-11-2019 07:50 -5.3 23 0 997.9
Sant'Anna di Vinadio 13-11-2019 08:00 -5.2 23 0 998
Sant'Anna di Vinadio 13-11-2019 08:10 -5.2 24 0 998.1
Sant'Anna di Vinadio 13-11-2019 08:20 -4.2 24 0 998.2
Sant'Anna di Vinadio 13-11-2019 08:30 -2.4 22 0 998.4
Sant'Anna di Vinadio 13-11-2019 08:40 -2.2 21 0 998.5
Sant'Anna di Vinadio 13-11-2019 08:50 -1.5 20 0 998.6
Sant'Anna di Vinadio 13-11-2019 09:00 -1.4 20 0 998.7
Sant'Anna di Vinadio 13-11-2019 09:10 -0.8 19 0 998.8
Sant'Anna di Vinadio 13-11-2019 09:20 0.5 18 0 998.9
Sant'Anna di Vinadio 13-11-2019 09:30 0.7 17 0 999
Sant'Anna di Vinadio 13-11-2019 09:40 -0.4 16 0 999.1
Sant'Anna di Vinadio 13-11-2019 09:50 0.6 13 0 999.2
Sant'Anna di Vinadio 13-11-2019 10:00 0.6 15 0 999.3
Sant'Anna di Vinadio 13-11-2019 10:10 0.4 15 0 999.4
Sant'Anna di Vinadio 13-11-2019 10:20 2.1 13 0 999.5
Sant'Anna di Vinadio 13-11-2019 10:30 2.7 9 0 999.6
Sant'Anna di Vinadio 13-11-2019 10:40 3.2 9 0 999.7
Sant'Anna di Vinadio 13-11-2019 10:50 3.2 7 0 999.8
Sant'Anna di Vinadio 13-11-2019 11:00 2.7 9 0 999.9
Sant'Anna di Vinadio 13-11-2019 11:10 2.4 8 0 1000
Sant'Anna di Vinadio 13-11-2019 11:20 2.9 8 0 1000
Sant'Anna di Vinadio 13-11-2019 11:30 3.9 9 0 1000.1
Sant'Anna di Vinadio 13-11-2019 11:40 3.9 6 0 1000.1
Sant'Anna di Vinadio 13-11-2019 11:50 4.1 7 0 1000
Sant'Anna di Vinadio 13-11-2019 12:00 4.7 6 0 1000.1
Sant'Anna di Vinadio 13-11-2019 12:10 5.7 10 0 1000.2
Sant'Anna di Vinadio 13-11-2019 12:20 3.7 12 0 1000.2
Sant'Anna di Vinadio 13-11-2019 12:30 2.6 15 0 1000.3
Sant'Anna di Vinadio 13-11-2019 12:40 2 16 0 1000.3
Sant'Anna di Vinadio 13-11-2019 12:50 3 9 0 1000.3
Sant'Anna di Vinadio 13-11-2019 13:00 2.9 11 0 1000.4
Sant'Anna di Vinadio 13-11-2019 13:10 3 13 0 1000.4
Sant'Anna di Vinadio 13-11-2019 13:20 3.2 13 0 1000.5
Sant'Anna di Vinadio 13-11-2019 13:30 3.6 12 0 1000.6
Sant'Anna di Vinadio 13-11-2019 13:40 3.5 13 0 1000.7
Sant'Anna di Vinadio 13-11-2019 13:50 2.8 8 0 1000.8
Sant'Anna di Vinadio 13-11-2019 14:00 3.4 11 0 1000.8
Sant'Anna di Vinadio 13-11-2019 14:10 3 17 0 1000.9
Sant'Anna di Vinadio 13-11-2019 14:20 2.5 18 0 1000.9
Sant'Anna di Vinadio 13-11-2019 14:30 2.5 19 0 1000.9
Sant'Anna di Vinadio 13-11-2019 14:40 2.4 19 0 1001
Sant'Anna di Vinadio 13-11-2019 14:50 2.3 25 0 1001
Sant'Anna di Vinadio 13-11-2019 15:00 1.3 25 0 1001.1
Sant'Anna di Vinadio 13-11-2019 15:10 1.4 20 0 1001.2
Sant'Anna di Vinadio 13-11-2019 15:20 1.4 14 0 1001.2
Sant'Anna di Vinadio 13-11-2019 15:30 1.5 14 0 1001.2
Sant'Anna di Vinadio 13-11-2019 15:40 1.2 14 0 1001.3
Sant'Anna di Vinadio 13-11-2019 15:50 1.1 23 0 1001.4
Sant'Anna di Vinadio 13-11-2019 16:00 0.8 23 0 1001.5
Sant'Anna di Vinadio 13-11-2019 16:10 0.8 23 0 1001.6
Sant'Anna di Vinadio 13-11-2019 16:20 0.5 27 0 1001.7
Sant'Anna di Vinadio 13-11-2019 16:30 -0.1 29 0 1001.7
Sant'Anna di Vinadio 13-11-2019 16:40 -0.3 29 0 1001.8
Sant'Anna di Vinadio 13-11-2019 16:50 -0.4 29 0 1001.8
Sant'Anna di Vinadio 13-11-2019 17:00 0 29 0 1001.9
Sant'Anna di Vinadio 13-11-2019 17:10 -0.2 29 0 1001.9
Sant'Anna di Vinadio 13-11-2019 17:20 -0.3 29 0 1002.1
Sant'Anna di Vinadio 13-11-2019 17:30 -0.3 26 0 1002.3
Sant'Anna di Vinadio 13-11-2019 17:40 0.1 26 0 1002.4
Sant'Anna di Vinadio 13-11-2019 17:50 0.1 25 0 1002.6
Sant'Anna di Vinadio 13-11-2019 18:00 0.1 26 0 1002.7
Sant'Anna di Vinadio 13-11-2019 18:10 -0.2 29 0 1002.7
Sant'Anna di Vinadio 13-11-2019 18:20 -1 30 0 1002.8
Sant'Anna di Vinadio 13-11-2019 18:30 -0.9 28 0 1002.8
Sant'Anna di Vinadio 13-11-2019 18:40 -0.6 24 0 1002.8
Sant'Anna di Vinadio 13-11-2019 18:50 -0.6 24 0 1002.8
Sant'Anna di Vinadio 13-11-2019 19:00 -0.6 27 0 1002.9
Sant'Anna di Vinadio 13-11-2019 19:10 -0.5 27 0 1002.9
Sant'Anna di Vinadio 13-11-2019 19:20 -0.5 25 0 1003
Sant'Anna di Vinadio 13-11-2019 19:30 -0.3 23 0 1003
Sant'Anna di Vinadio 13-11-2019 19:40 -0.4 22 0 1003.2
Sant'Anna di Vinadio 13-11-2019 19:50 -0.2 22 0 1003.2
Sant'Anna di Vinadio 13-11-2019 20:00 -0.2 22 0 1003.2
Sant'Anna di Vinadio 13-11-2019 20:10 -0.4 22 0 1003.1
Sant'Anna di Vinadio 13-11-2019 20:20 0 20 0 1003.1
Sant'Anna di Vinadio 13-11-2019 20:30 0.3 18 0 1003.1
Sant'Anna di Vinadio 13-11-2019 20:40 0.3 19 0 1003.1
Sant'Anna di Vinadio 13-11-2019 20:50 0 19 0 1003.2
Sant'Anna di Vinadio 13-11-2019 21:00 0 19 0 1003.3
Sant'Anna di Vinadio 13-11-2019 21:10 0 18 0 1003.4
Sant'Anna di Vinadio 13-11-2019 21:20 0 19 0 1003.5
Sant'Anna di Vinadio 13-11-2019 21:30 0.1 18 0 1003.6
Sant'Anna di Vinadio 13-11-2019 21:40 0.2 18 0 1003.6
Sant'Anna di Vinadio 13-11-2019 21:50 0 18 0 1003.7
Sant'Anna di Vinadio 13-11-2019 22:00 -0.1 18 0 1003.7
Sant'Anna di Vinadio 13-11-2019 22:10 -0.1 19 0 1003.7
Sant'Anna di Vinadio 13-11-2019 22:20 -0.1 19 0 1003.7
Sant'Anna di Vinadio 13-11-2019 22:30 -0.1 19 0 1003.7
Sant'Anna di Vinadio 13-11-2019 22:40 -0.2 19 0 1003.6
Sant'Anna di Vinadio 13-11-2019 22:50 -0.2 19 0 1003.6
Sant'Anna di Vinadio 13-11-2019 23:00 -0.2 19 0 1003.6
Sant'Anna di Vinadio 13-11-2019 23:10 -0.3 20 0 1003.6
Sant'Anna di Vinadio 13-11-2019 23:20 -0.6 19 0 1003.5
Sant'Anna di Vinadio 13-11-2019 23:30 -0.6 19 0 1003.5
Sant'Anna di Vinadio 13-11-2019 23:40 -0.8 20 0 1003.4
Sant'Anna di Vinadio 13-11-2019 23:50 -1 22 0 1003.4
Sant'Anna di Vinadio 14-11-2019 00:00 -1.1 24 0 1003.4
Sant'Anna di Vinadio 14-11-2019 00:10 -1.2 27 0 1003.5
Sant'Anna di Vinadio 14-11-2019 00:20 -1.2 28 0 1003.6
Sant'Anna di Vinadio 14-11-2019 00:30 -1.4 33 0 1003.5
Sant'Anna di Vinadio 14-11-2019 00:40 -1.7 35 0 1003.5
Sant'Anna di Vinadio 14-11-2019 00:50 -1.9 40 0 1003.5
Sant'Anna di Vinadio 14-11-2019 01:00 -1.7 39 0 1003.5
Sant'Anna di Vinadio 14-11-2019 01:10 -1.5 32 0 1003.5
Sant'Anna di Vinadio 14-11-2019 01:20 -1.6 37 0 1003.5
Sant'Anna di Vinadio 14-11-2019 01:30 -2.1 42 0 1003.5
Sant'Anna di Vinadio 14-11-2019 01:40 -2.1 42 0 1003.6
Sant'Anna di Vinadio 14-11-2019 01:50 -2 43 0 1003.6
Sant'Anna di Vinadio 14-11-2019 02:00 -2.1 46 0 1003.7
Sant'Anna di Vinadio 14-11-2019 02:10 -2.6 46 0 1003.7
Sant'Anna di Vinadio 14-11-2019 02:20 -2.8 44 0 1003.6
Sant'Anna di Vinadio 14-11-2019 02:30 -3.1 44 0 1003.6
Sant'Anna di Vinadio 14-11-2019 02:40 -3.3 41 0 1003.7
Sant'Anna di Vinadio 14-11-2019 02:50 -4 43 0 1003.7
Sant'Anna di Vinadio 14-11-2019 03:00 -4.3 43 0 1003.7
Sant'Anna di Vinadio 14-11-2019 03:10 -4.4 43 0 1003.8
Sant'Anna di Vinadio 14-11-2019 03:20 -4.4 44 0 1003.8
Sant'Anna di Vinadio 14-11-2019 03:30 -4.7 44 0 1003.8
Sant'Anna di Vinadio 14-11-2019 03:40 -4.7 44 0 1003.8
Sant'Anna di Vinadio 14-11-2019 03:50 -4.6 44 0 1003.7
Sant'Anna di Vinadio 14-11-2019 04:00 -4.6 44 0 1003.5
Sant'Anna di Vinadio 14-11-2019 04:10 -5 45 0 1003.5
Sant'Anna di Vinadio 14-11-2019 04:20 -5 45 0 1003.5
Sant'Anna di Vinadio 14-11-2019 04:30 -5.1 45 0 1003.6
Sant'Anna di Vinadio 14-11-2019 04:40 -4.9 44 0 1003.6
Sant'Anna di Vinadio 14-11-2019 04:50 -4.6 45 0 1003.6
Sant'Anna di Vinadio 14-11-2019 05:00 -4.7 46 0 1003.6
Sant'Anna di Vinadio 14-11-2019 05:10 -4.8 47 0 1003.7
Sant'Anna di Vinadio 14-11-2019 05:20 -5 48 0 1003.5
Sant'Anna di Vinadio 14-11-2019 05:30 -5 49 0 1003.3
Sant'Anna di Vinadio 14-11-2019 05:40 -5 48 0 1003.4
Sant'Anna di Vinadio 14-11-2019 05:50 -5 48 0 1003.6
Sant'Anna di Vinadio 14-11-2019 06:00 -5.2 48 0 1003.7
Sant'Anna di Vinadio 14-11-2019 06:10 -5.3 49 0 1003.8
Sant'Anna di Vinadio 14-11-2019 06:20 -5.4 50 0 1003.8
Sant'Anna di Vinadio 14-11-2019 06:30 -5.3 50 0 1003.8
Sant'Anna di Vinadio 14-11-2019 06:40 -5.2 50 0 1003.8
Sant'Anna di Vinadio 14-11-2019 06:50 -5.1 50 0 1003.9
Sant'Anna di Vinadio 14-11-2019 07:00 -5.4 51 0 1004.1
Sant'Anna di Vinadio 14-11-2019 07:10 -5.4 51 0 1004.2
Sant'Anna di Vinadio 14-11-2019 07:20 -5.4 52 0 1004.2
Sant'Anna di Vinadio 14-11-2019 07:30 -5.5 55 0 1004.2

Riassuntivo giornaliero del 14-11-2019